Flag for France Weather past 2 weeks in Taiohae, Marquesas Islands, France

Now
74 °F

Mild.


Feels Like: 75 °F
Forecast: 79 / 81 °F
Wind: 1 mph from North

Location: Atuona

Current Time: Aug 20, 2014 at 2:18:52 AM

Latest Report: Aug 20, 2014 at 1:30 AM


Visibility: N/A

Pressure: 29.90 "Hg

Humidity: 78%

Dew point: 67 °F

Location of TaiohaeLocation

Historic Weather in Taiohae — Graph

°F

Taiohae temperature yesterday

Maximum temperature yesterday: 83 °F (at 11:30 AM)
Minimum temperature yesterday: 73 °F (at 5:30 AM)
Average temperature yesterday: 78 °F

Past Weeks' High & Low Weather Summary

 TemperatureHumidityPressure
High86 °F (Aug 14, 12:30 PM)96% (Aug 11, 10:30 AM)30.00 "Hg (Aug 11, 10:30 AM)
Low72 °F (Aug 5, 4:30 AM)58% (Aug 17, 10:30 AM)29.85 "Hg (Aug 15, 2:30 PM)
Average77 °F80%29.93 "Hg
* Reported Aug 5 12:30 AM — Aug 20 12:30 AM, Taiohae, Weather by CustomWeather, © 2014

Note: Actual official high and low records may vary slightly from our data, if they occured in-between our weather recording intervals... More about our weather records

Advertising

Taiohae weather history for previous 24 hours

 ConditionsComfort  
Time TempWeatherWind HumidityBarometerVisibility
12:30 AM
Aug 20
77 °FMild.10 mph72%29.90 "HgN/A
11:30 PM
Aug 19
77 °FWarm.10 mph71%29.92 "HgN/A
10:30 PM77 °FWarm.6 mph73%29.93 "HgN/A
9:30 PM78 °FWarm.8 mph72%29.93 "HgN/A
8:30 PM78 °FWarm.7 mph70%29.93 "HgN/A
7:30 PM78 °FWarm.7 mph75%29.92 "HgN/A
6:30 PM78 °FWarm.10 mph72%29.90 "HgN/A
5:30 PM78 °FWarm.10 mph73%29.89 "HgN/A
4:30 PM79 °FScattered clouds.9 mph69%29.87 "Hg22 mi
3:30 PM79 °FWarm.10 mph70%29.87 "HgN/A
2:30 PM80 °FPartly sunny.14 mph73%29.87 "Hg22 mi
1:30 PM81 °FScattered clouds.14 mph70%29.89 "Hg22 mi
12:30 PM82 °FScattered clouds.12 mph69%29.92 "Hg22 mi
11:30 AM83 °FScattered clouds.17 mph72%29.94 "Hg22 mi
10:30 AM82 °FScattered clouds.18 mph70%29.96 "Hg19 mi
9:30 AM81 °FWarm.13 mph75%29.98 "HgN/A
8:30 AM80 °FScattered clouds.13 mph76%29.98 "Hg19 mi
7:30 AM75 °FMild.3 mph87%29.98 "HgN/A
6:30 AM73 °FMild.No wind89%29.96 "HgN/A
5:30 AM73 °FMild.1 mph89%29.94 "HgN/A
4:30 AM74 °FMild.2 mph90%29.93 "HgN/A
3:30 AM73 °FMild.No wind89%29.91 "HgN/A
2:30 AM74 °FMild.2 mph87%29.92 "HgN/A
Weather by CustomWeather, © 2014

See weather overviewHow to use our weather pages